• Join FlightAware (Why Join?)
  • Login
  • US Flag 
11:03AM EDT


 

Airport Tracker/Info


-or-


 

Live Flight TrackerFlight Track Log ✈ SWA311 ✈ 21-Apr-2013 ✈ KHOU - KPIT

Flight Track Log - Related Links

Times and Time Zones

All times are in EDT time to prevent confusion due to time zone crossing. See the SWA311 flight status page for this flight to view local times or setup timezone preferences in your user account.

Time Position Orientation Groundspeed Altitude Reporting Facility
EDT Latitude Longitude Course Direction KTS MPH feet Rate Location/Type
03:24PM 29.6544 -95.2675 20° North 168 193 400  Level Houston Center
03:25PM 29.6867 -95.2539 20° North 186 214 1,800 2,280 Climbing Houston Center
03:26PM 29.7403 -95.2883 331° Northwest 235 270 4,400 2,220 Climbing Houston Center
03:27PM 29.7961 -95.3150 337° Northwest 234 269 6,500 2,400 Climbing Houston Center
03:28PM 29.8836 -95.3386 347° North 287 330 9,400 2,400 Climbing Houston Center
03:29PM 29.9697 -95.3103 16° North 326 375 11,500 2,520 Climbing Houston Center
03:30PM 30.0492 -95.2428 36° Northeast 352 405 14,800 2,940 Climbing Houston Center
03:31PM 30.1403 -95.1836 29° Northeast 371 427 17,600 2,640 Climbing Houston Center
03:32PM 30.2328 -95.1169 32° Northeast 388 447 20,300 2,400 Climbing Houston Center
03:33PM 30.3300 -95.0497 31° Northeast 403 464 22,600 2,340 Climbing Houston Center
03:34PM 30.4417 -94.9700 32° Northeast 425 489 25,200 2,160 Climbing Houston Center
03:35PM 30.5453 -94.8975 31° Northeast 433 498 27,100 1,680 Climbing Houston Center
03:36PM 30.6494 -94.8178 33° Northeast 446 513 28,800 1,740 Climbing Houston Center
03:37PM 30.7789 -94.7186 33° Northeast 468 539 30,800 1,920 Climbing Houston Center
03:38PM 30.8853 -94.6353 34° Northeast 463 533 32,800 1,800 Climbing Houston Center
03:39PM 30.9253 -94.6044 33° Northeast 466 536 33,500 1,620 Climbing Fort Worth Center
03:40PM 31.0300 -94.5214 34° Northeast 447 514 35,200 1,260 Climbing Fort Worth Center
03:41PM 31.1489 -94.4328 33° Northeast 447 514 36,100 900 Climbing Fort Worth Center
03:42PM 31.2472 -94.3542 34° Northeast 453 521 37,000 1,020 Climbing Fort Worth Center
03:43PM 31.3558 -94.2706 33° Northeast 460 529 38,200 960 Climbing Fort Worth Center
03:44PM 31.4622 -94.1864 34° Northeast 460 529 39,000 360 Climbing Fort Worth Center
03:45PM 31.5747 -94.0997 33° Northeast 465 535 39,000  Level Fort Worth Center
03:46PM 31.6914 -94.0075 34° Northeast 465 535 39,000  Level Fort Worth Center
03:47PM 31.7975 -93.9231 34° Northeast 465 535 39,000  Level Fort Worth Center
03:48PM 31.9058 -93.8381 34° Northeast 460 529 39,000  Level Fort Worth Center
03:49PM 32.0039 -93.7583 35° Northeast 460 529 39,000  Level Fort Worth Center
03:50PM 32.1181 -93.6706 33° Northeast 455 524 39,000  Level Fort Worth Center
03:51PM 32.2217 -93.5778 37° Northeast 460 529 39,000  Level Fort Worth Center
03:52PM 32.3300 -93.4944 33° Northeast 460 529 39,000  Level Fort Worth Center
03:53PM 32.4358 -93.4086 34° Northeast 460 529 39,000  Level Fort Worth Center
03:54PM 32.5414 -93.3228 34° Northeast 460 529 39,000  Level Fort Worth Center
03:56PM 32.7569 -93.1475 34° Northeast 460 529 39,000  Level Fort Worth Center
03:58PM 32.9703 -92.9794 33° Northeast 479 551 39,000  Level Memphis Center
03:59PM 33.0806 -92.8911 34° Northeast 473 544 39,000  Level Memphis Center
04:00PM 33.1867 -92.8022 35° Northeast 473 544 39,000  Level Memphis Center
04:01PM 33.2867 -92.7008 40° Northeast 473 544 39,000  Level Memphis Center
04:02PM 33.3747 -92.5711 51° Northeast 480 552 39,000  Level Memphis Center
04:03PM 33.4583 -92.4414 52° Northeast 486 559 39,000  Level Memphis Center
04:04PM 33.5419 -92.3086 53° Northeast 492 566 39,000  Level Memphis Center
04:05PM 33.6272 -92.1833 51° Northeast 492 566 39,000  Level Memphis Center
04:06PM 33.7125 -92.0553 51° Northeast 487 560 39,000  Level Memphis Center
04:07PM 33.7978 -91.9244 52° Northeast 481 554 39,000  Level Memphis Center
04:08PM 33.8786 -91.7958 53° Northeast 481 554 39,000  Level Memphis Center
04:09PM 33.9592 -91.6669 53° Northeast 476 548 39,000  Level Memphis Center
04:10PM 34.0442 -91.5328 53° Northeast 486 559 39,000  Level Memphis Center
04:11PM 34.1286 -91.4061 51° Northeast 486 559 39,000  Level Memphis Center
04:12PM 34.2111 -91.2764 52° Northeast 486 559 39,000  Level Memphis Center
04:13PM 34.2956 -91.1417 53° Northeast 486 559 39,000  Level Memphis Center
04:14PM 34.3861 -90.9989 52° Northeast 486 559 39,000  Level Memphis Center
04:15PM 34.4700 -90.8661 53° Northeast 491 565 39,000  Level Memphis Center
04:16PM 34.5542 -90.7278 54° Northeast 486 559 39,000  Level Memphis Center
04:17PM 34.6358 -90.5969 53° Northeast 486 559 39,000  Level Memphis Center
04:18PM 34.7172 -90.4658 53° Northeast 486 559 39,000  Level Memphis Center
04:19PM 34.8008 -90.3294 53° Northeast 492 566 39,000  Level Memphis Center
04:20PM 34.8842 -90.1950 53° Northeast 492 566 39,000  Level Memphis Center
04:21PM 34.9611 -90.0758 52° Northeast 492 566 39,000  Level Memphis Center
04:22PM 35.0442 -89.9411 53° Northeast 492 566 39,000  Level Memphis Center
04:23PM 35.1228 -89.8011 56° Northeast 497 572 39,000  Level Memphis Center
04:24PM 35.2097 -89.6456 56° Northeast 497 572 39,000  Level Memphis Center
04:25PM 35.2839 -89.5100 56° Northeast 497 572 39,000  Level Memphis Center
04:26PM 35.3622 -89.3692 56° Northeast 495 570 39,000  Level Memphis Center
04:27PM 35.4381 -89.2333 56° Northeast 489 563 39,000  Level Memphis Center
04:28PM 35.5142 -89.0969 56° Northeast 479 551 39,000  Level Memphis Center
04:29PM 35.5878 -88.9631 56° Northeast 479 551 39,000  Level Memphis Center
04:30PM 35.6633 -88.8264 56° Northeast 479 551 39,000  Level Memphis Center
04:31PM 35.7364 -88.6869 57° Northeast 479 551 39,000  Level Memphis Center
04:32PM 35.8117 -88.5497 56° Northeast 479 551 39,000  Level Memphis Center
04:33PM 35.8889 -88.4097 56° Northeast 484 557 39,000  Level Memphis Center
04:34PM 35.9658 -88.2719 55° Northeast 489 563 39,000  Level Memphis Center
04:35PM 36.0406 -88.1314 57° Northeast 489 563 39,000  Level Memphis Center
04:36PM 36.1092 -88.0061 56° Northeast 483 556 39,000  Level Memphis Center
04:37PM 36.1856 -87.8653 56° Northeast 494 568 39,000  Level Memphis Center
04:38PM 36.2678 -87.7083 57° Northeast 494 568 39,000  Level Memphis Center
04:39PM 36.3439 -87.5692 56° Northeast 487 560 39,000  Level Memphis Center
04:40PM 36.4178 -87.4272 57° Northeast 492 566 39,000  Level Memphis Center
04:41PM 36.4936 -87.2853 56° Northeast 492 566 39,000  Level Memphis Center
04:42PM 36.5692 -87.1428 57° Northeast 492 566 39,000  Level Memphis Center
04:43PM 36.6425 -86.9950 58° Northeast 492 566 39,000  Level Memphis Center
04:44PM 36.7033 -86.8606 61° Northeast 492 566 39,000  Level Memphis Center
04:45PM 36.7700 -86.7128 61° Northeast 492 566 39,000  Level Memphis Center
04:46PM 36.8383 -86.5617 60° Northeast 492 566 39,000  Level Memphis Center
04:47PM 36.9044 -86.4108 61° Northeast 492 566 39,000  Level Memphis Center
04:48PM 37.0219 -86.1528 60° Northeast 502 578 39,000  Level Indianapolis Center
04:49PM 37.0906 -85.9992 61° Northeast 499 574 39,000  Level Indianapolis Center
04:50PM 37.1578 -85.8469 61° Northeast 496 571 39,000  Level Indianapolis Center
04:51PM 37.2247 -85.6925 61° Northeast 499 574 39,000  Level Indianapolis Center
04:52PM 37.2931 -85.5400 61° Northeast 497 572 39,000  Level Indianapolis Center
04:53PM 37.3586 -85.3889 61° Northeast 494 568 39,000  Level Indianapolis Center
04:54PM 37.4256 -85.2342 61° Northeast 501 577 39,000  Level Indianapolis Center
04:55PM 37.5047 -85.0547 61° Northeast 501 577 39,000  Level Indianapolis Center
04:57PM 37.5714 -84.8997 61° Northeast 500 575 39,000  Level Indianapolis Center
04:58PM 37.6364 -84.7481 62° Northeast 493 567 39,000  Level Indianapolis Center
04:59PM 37.7022 -84.5953 61° Northeast 493 567 39,000  Level Indianapolis Center
05:00PM 37.7683 -84.4411 61° Northeast 495 570 39,000  Level Indianapolis Center
05:01PM 37.8325 -84.2878 62° Northeast 490 564 39,000  Level Indianapolis Center
05:02PM 37.9225 -84.1203 56° Northeast 493 567 39,000  Level Indianapolis Center
05:03PM 38.0103 -83.9914 49° Northeast 484 557 39,000  Level Indianapolis Center
05:04PM 38.0989 -83.8581 50° Northeast 489 563 39,000 -240 Level Indianapolis Center
05:05PM 38.1869 -83.7206 51° Northeast 495 570 38,600 -720 Descending Indianapolis Center
05:06PM 38.2761 -83.5861 50° Northeast 494 568 37,600 -960 Descending Indianapolis Center
05:07PM 38.3633 -83.4528 50° Northeast 490 564 36,700 -1,020 Descending Indianapolis Center
05:08PM 38.4633 -83.3006 50° Northeast 480 552 35,600 -1,020 Descending Indianapolis Center
05:09PM 38.5522 -83.1633 50° Northeast 496 571 34,600 -1,020 Descending Indianapolis Center
05:10PM 38.6389 -83.0272 51° Northeast 493 567 33,600 -1,080 Descending Indianapolis Center
05:11PM 38.7233 -82.8967 50° Northeast 471 542 32,500 -1,020 Descending Indianapolis Center
05:12PM 38.8047 -82.7703 50° Northeast 461 531 31,500 -1,020 Descending Indianapolis Center
05:13PM 38.8853 -82.6447 50° Northeast 454 522 30,500 -1,020 Descending Indianapolis Center
05:14PM 38.9644 -82.5203 51° Northeast 450 518 29,500 -840 Descending Indianapolis Center
05:15PM 39.0425 -82.3956 51° Northeast 447 514 28,800 -840 Descending Indianapolis Center
05:16PM 39.1281 -82.2603 51° Northeast 476 548 27,900 -1,020 Descending Indianapolis Center
05:17PM 39.2158 -82.1225 51° Northeast 490 564 26,800 -1,140 Descending Indianapolis Center
05:18PM 39.3147 -81.9633 51° Northeast 473 544 25,600 -1,080 Descending Indianapolis Center
05:19PM 39.3956 -81.8333 51° Northeast 463 533 24,600 -1,020 Descending Indianapolis Center
05:20PM 39.4767 -81.7047 51° Northeast 460 529 23,600 -1,020 Descending Indianapolis Center
05:21PM 39.5544 -81.5769 52° Northeast 451 519 22,600 -1,020 Descending Indianapolis Center
05:22PM 39.6303 -81.4547 51° Northeast 437 503 21,500 -1,200 Descending Indianapolis Center
05:23PM 39.6578 -81.4081 53° Northeast 448 516 21,100 -420 Descending Cleveland Center
05:24PM 39.7314 -81.2903 51° Northeast 433 498 21,000 -960 Descending Cleveland Center
05:25PM 39.8031 -81.1747 51° Northeast 428 493 19,200 -1,680 Descending Cleveland Center
05:26PM 39.8703 -81.0672 51° Northeast 406 467 17,700 -2,100 Descending Cleveland Center
05:27PM 39.9353 -80.9539 53° Northeast 395 455 15,100 -2,580 Descending Cleveland Center
05:28PM 40.0003 -80.8458 52° Northeast 389 448 12,600 -2,340 Descending Cleveland Center
05:29PM 40.0711 -80.7514 46° Northeast 379 436 10,500 -1,320 Descending Cleveland Center
05:30PM 40.1358 -80.6700 44° Northeast 344 396 10,000 -780 Descending Cleveland Center
05:31PM 40.2069 -80.6267 25° Northeast 291 335 9,000 -1,200 Descending Cleveland Center
05:32PM 40.2756 -80.5914 21° North 269 310 7,600 -1,440 Descending Cleveland Center
05:33PM 40.3464 -80.5558 21° North 264 304 6,200 -1,320 Descending Cleveland Center
05:34PM 40.4153 -80.5231 20° North 264 304 5,000 -1,020 Descending Cleveland Center
05:35PM 40.4569 -80.4794 39° Northeast 247 284 4,200 -720 Descending Cleveland Center
05:36PM 40.4944 -80.4083 55° Northeast 214 246 3,600 -840 Descending Cleveland Center
05:37PM 40.5047 -80.3564 75° East 164 189 2,600 -1,020 Descending Cleveland Center
05:39PM 40.4915 -80.2329 90° East  Level Estimated
05:46PM 40.4915 -80.2329 90° East  Level Estimated
05:47PM 40.4915 -80.2329 90° East  Level Estimated